CORVUS BC5 (46931 NORAD) Tracking and Keplerian Element Data

This shows tracking and keplerian element data for the satellite.

Feedback or suggestion? Click here.




ElementValue
Catalog46931
NameCORVUS BC5
Epoch Orbit894
Epoch Day17.90991335
Epoch Year2021
RAAN157.3604
Inclination97.3717
Eccentricity0.0017301
Argument of Perigee78.5842
Mean Anonmoly281.7335
Mean Motion15.21902179
Decay Rate1.196E-05
L11 46931U 20085C 21017.90991335 .00001196 00000-0 55387-4 0 9997
L22 46931 97.3717 157.3604 0017301 78.5842 281.7335 15.21902179 8948

Live tracking and technical data element details for CORVUS BC5 (NORAD 46931). CORVUS BC5 can be tracked NOW for your location showing map with azimuth and elevation plus other details from your city location.

Track the satellite on the map from your city or location and see movement details for azimuth, elevation, latitude, longitude, range, height, and movement on the map or in text.







IsCatalogInMostPopularTable: catalog: 46931, numindb: 29
Update: records affected: 1



GetName: 46931 CORVUS BC5

Hit Count: updated at: Tue, 19 Jan 2021 01:45:51 GMT